DECAYED

STARLINK-30709, 57948 (Decayed)

Orbit data source: Space-Track

STARLINK-30709, 57948 was a payload satellite owned by SpaceX/Seattle (US) in LEO that was launched on Mon, 25 Sep 2023 UTC via an FALCON 9 launch vehicle from the Air Force Western Test Range (AFWTR). Payload-class satellites include a variety of spacecraft equipped with specific instruments for various scientific and technological missions. These include communications satellites like Starlink; space stations such as the ISS; scientific satellites like the Hubble; Earth observation satellites from companies like Planet Labs, Umbra, and HawkEye 360; GPS; miniature CubeSats for education and research; and military/defense satellites.

Not visible in the next 10 days
Identifier
57948, 2023-148P
Orbit
Decayed
Country
Flag of USUS
Related business
Manufacturer
SpaceX/Seattle
Mission
Decayed Commercial Communications
Bus & Motor
STARLINK V2M, Unknown motor
Mass
730 kg wet, ~700 kg dry
Launch date (UTC)
2023-09-25 (3 years ago)
Launch vehicle
FALCON 9
Launch site
Air Force Western Test Range (AFWTR)
Object type
Payload
Rocket body
Debris
Shape & HBR
Box + 2 Pan, 17.7 m
Radar Cross Section
33.884 m², Large (>1 m²)

Expand to show TLE details & history
Last TLE update: 9 months ago

TLE from 9 months ago
0 STARLINK-30709
1 57948U 23148P   25264.87579497  .07604046  11893-4  34660-2 0  9990
2 57948  53.1178  63.1558 0017801 293.0688  66.8475 16.20817961112923
Epoch: 2025-09-21T21:01Z
TLE epoch observation values (Epoch: 2025-09-21T21:01:08.685Z)
Latitude
0.00003°
Longitude
106.88159°
Altitude
213.664 km
Speed
7.782 km/s
True Right ascension
04h 12m 37s
True Declination
0° 00' 00"
Sunlit
Object was in full shadow at epoch
Visualization orbit readout
Latitude
Unknown
Longitude
Unknown
Altitude
Unknown
Speed
Unknown
Apparent Right ascension
Unknown
Apparent Declination
Unknown
Sunlit
N/A
Visualization observer readout
Local Sidereal Time
21:29:55
Azimuth
Unknown
Elevation
Unknown
Doppler factor
Unknown
Orbital elements
Apogee altitude
229.346 km
Perigee altitude
205.864 km
Semi-major axis
6,595.742 km
Eccentricity
0.00178
Inclination
53.1178°
RAAN
63.1558°
Arg. of periapsis
293.0688°
True anomaly
67.03522°
Mean anomaly
66.8475°
Eccentric anomaly
66.94134°
Mean motion
4.0518 °/min
Orbital period
88.85 mins
BSTAR
0.003466
Loading maneuver chart data...
Computing Atmospheric mass density...
Loading historical data...
Loading historical data...
Loading historical data...
Loading historical data...
Loading historical data...
Loading historical data...
Loading historical data...

Documentation

Showing up to 5 results
|